Zurück zum Katalog

THORAD AGENA D DEB

AktivLEO
NORAD 4679·DEBRIS·🇺🇸 United States

Gestartet Apr 8, 1970 von Vandenberg Space Force Base

Loading…

Nächste Überflüge (nächste 24 Stunden)

TLE

AktuellSource: Space-Track

Epoche: Sep 14, 2026, 09:11 UTC

1 04679U 70025BC  26257.38302236  .00000257  00000-0  35656-3 0  9991
2 04679 100.1925  83.2144 0017387 338.2576 140.0272 13.68732620802428

Verfolge THORAD AGENA D DEB in Echtzeit mit AllMySat

Download on the App Store